www.pogodaiklimat.ru

Погода и климат >> Архив погоды >> Швеция >> Арвика


ПОГОДА в Арвике

  • Прогноз погоды в Арвике
  • Монитор погоды в Арвике

АРХИВ ПОГОДЫ в Арвике

Время (UTC), дата Ветер
(напр.,м/с)
 
Видим.   Явления Облачность Т
(С)
Тd
(С)
f
(%)
Тe
(С)
Тes
(С)
Комфортность P
(гПа)
Po
(гПа)
Тmin
(С)
Tmax
(С)
R
(мм)
R24
(мм)
S
(см)
19 9.09 штиль 0
{3}
50 км 10/10 300 м
[]
+12.8 +11.5 92 +12 +12 1016.6 1008.5
20 9.09 С 1
{4}
30 км слаб. ливневой дождь 10/10 360 м
[]
+12.8 +11.9 94 +13 +13 1016.4 1008.4
21 9.09 СВ 1
{3}
50 км {ливн. осадки, дождь} 10/10 300 м
[]
+13.0 +11.9 93 +13 +13 1016.5 1008.4
22 9.09 С 2
{3}
30 км слаб. дождь 10/10 270 м
[]
+13.1 +12.2 94 +12 +12 1016.0 1008.0
23 9.09 СВ 2
{3}
35 км слаб. дождь 10/10 330 м
[]
+13.2 +12.6 96 +12 +12 1015.7 1007.6 0.3
00 10.09 С 1
{3}
30 км слаб. дождь 10/10 480 м
[]
+13.1 +12.7 97 +13 +13 1015.2 1007.2 1
01 10.09 С 1
{3}
50 км в посл. час дождь 10/10 630 м
[]
+13.2 +12.7 97 +13 +13 1015.0 1007.0 0.1
02 10.09 С 1
{4}
50 км {дождь} 10/10 800 м
[]
+13.5 +12.9 96 +14 +14 1014.3 1006.3
03 10.09 С 2
{4}
35 км в посл. час дождь {ливн. осадки} 10/10 750 м
[]
+13.8 +13.1 96 +13 +13 1013.7 1005.7
05 10.09 В 1
{6}
45 км слаб. дождь 6/6 360 м
[]
+13.8 +13.2 96 +14 +14 1012.9 1005.0 0.7
06 10.09 С 1
{2}
50 км слаб. ливневой дождь 9/9 360 м
[]
+14.6 +13.7 94 +15 +15 1012.8 1004.8 +12.6 +14.6 0.1
07 10.09 В 1
{4}
50 км {дождь} 6/0
[]
+15.8 +14.2 90 +16 +18 1012.4 1004.5
08 10.09 штиль 0
{3}
50 км {дождь} 10/10 450 м
[]
+16.3 +14.0 86 +16 +16 1012.3 1004.4
09 10.09 СВ 2
{6}
50 км {дождь} 10/10 450 м
[]
+16.0 +14.5 91 +16 +16 1012.3 1004.4
10 10.09 СВ 2
{5}
40 км {дождь} 10/10 480 м
[]
+17.2 +14.7 85 +18 +18 1011.7 1003.8
11 10.09 СВ 2
{5}
40 км {дождь} 10/10 500 м
[]
+17.9 +15.0 83 +18 +18 1011.3 1003.5
12 10.09 СВ 2
{5}
27 км {дождь} 3/3 570 м
[]
+19.6 +15.1 75 +22 +27 комфорт 1010.9 1003.1
13 10.09 СВ 2
{4}
35 км 8/0
[]
+19.9 +15.6 76 +23 +26 комфорт 1010.6 1002.8
14 10.09 С 2
{4}
7000 м дым 10/0
[]
+20.5 +15.9 75 +24 +26 комфорт 1010.1 1002.3
15 10.09 С 2
{5}
22 км {дымка} 1/0
[]
+20.5 +15.7 74 +24 +26 комфорт 1009.8 1002.0
16 10.09 СВ 2
{4}
6000 м дым ясно +19.8 +15.7 77 +23 +24 комфорт 1009.7 1001.9
17 10.09 СВ 1 35 км {дымка} ясно +17.8 +15.1 84 +19 +19 1009.8 1001.9
18 10.09 штиль 0
{2}
6000 м дымка ясно +13.8 +13.1 96 +13 +13 1009.9 1001.9 +13.8 +21.2
19 10.09 штиль 0
{1}
1800 м туман {дымка} 1/1 1000 м
[]
+12.1 +11.8 98 +11 +11 1009.9 1001.9
20 10.09 штиль 0 2800 м в посл. час туман {дымка} 6/6 930 м
[]
+11.8 +11.6 99 +11 +11 1010.4 1002.4
21 10.09 штиль 0
{1}
7000 м дымка {туман} 10/10 1230 м
[]
+13.3 +13.1 99 +13 +13 1010.4 1002.4
22 10.09 В 1
{2}
11 км в посл. час дождь {ливн. осадки} 10/10 1000 м
[]
+14.7 +14.7 100 +15 +15 1010.0 1002.0
23 10.09 ЮВ 1
{4}
23 км {ливн. осадки, дождь} 6/6 720 м
[]
+15.5 +13.7 89 +16 +16 1009.8 1001.8
00 11.09 ЮВ 1
{3}
11 км {ливн. осадки, дождь} ясно +14.1 +13.1 94 +14 +14 1009.5 1001.5
01 11.09 ЮВ 1
{3}
19 км ясно +14.4 +13.0 91 +15 +15 1009.1 1001.2
02 11.09 штиль 0
{2}
1800 м дымка 10/10 500 м
[]
+12.0 +11.8 99 +11 +11 1009.5 1001.4
03 11.09 штиль 0
{1}
3700 м дымка 10/10 420 м
[]
+12.0 +11.8 99 +11 +11 1009.0 1001.0
04 11.09 штиль 0 4200 м дымка 10/10 240 м
[]
+12.4 +12.3 99 +12 +12 1008.6 1000.6
05 11.09 Ю 1
{2}
14 км 10/10 270 м
[]
+13.6 +13.4 99 +14 +14 1008.4 1000.4
06 11.09 ЮВ 2
{3}
17 км {дымка} 10/10 270 м
[]
+13.9 +13.0 94 +13 +13 1008.0 1000.1 +11.6 +16.2
07 11.09 ЮВ 2
{4}
17 км 10/10 240 м
[]
+14.3 +13.2 93 +14 +14 1007.7 999.7
09 11.09 Ю 1
{3}
24 км в посл. час дождь {ливн. осадки} 10/10 240 м
[]
+15.7 +13.7 88 +16 +16 1007.6 999.7
10 11.09 ЮЗ 3
{8}
45 км в посл. час дождь {ливн. осадки} 10/10 1320 м
[]
+15.5 +9.9 69 +15 +15 1008.2 1000.2 0.0
11 11.09 ЮЗ 2
{7}
45 км {ливн. осадки, дождь} 6/6 1050 м
[]
+16.0 +9.0 63 +16 +19 1008.6 1000.7
12 11.09 ЮЗ 3
{9}
40 км {ливн. осадки, дождь} 9/9 1050 м
[]
+16.1 +9.8 66 +16 +16 1008.2 1000.3
13 11.09 Ю 2
{7}
50 км 10/10 1020 м
[]
+16.4 +10.3 67 +17 +17 1007.7 999.9
14 11.09 Ю 3
{10}
9000 м слаб. ливневой дождь 10/10 180 м
[]
+13.8 +12.0 89 +13 +13 1008.0 1000.0
15 11.09 Ю 3
{5}
50 км в посл. час дождь {ливн. осадки} 10/10 660 м
[]
+13.6 +12.2 91 +12 +12 1007.3 999.4
16 11.09 Ю 2
{6}
13 км ливневой дождь 10/10 480 м
[]
+13.3 +12.2 93 +13 +13 1006.7 998.7
17 11.09 Ю 2
{6}
12 км дождь {ливн. осадки} 10/10 240 м
[]
+13.1 +12.5 96 +12 +12 1005.8 997.9 1
18 11.09 Ю 2
{5}
8000 м слаб. ливневой дождь 10/10 240 м
[]
+13.3 +12.5 95 +12 +12 1005.4 997.5 +13.0 +17.4 0.2
19 11.09 Ю 2
{4}
5000 м в посл. час дождь {ливн. осадки} 10/10 150 м
[]
+13.3 +12.8 97 +12 +12 1004.7 996.8 0.2
20 11.09 Ю 2
{3}
6000 м слаб. ливневой дождь 10/10 150 м
[]
+13.7 +13.2 97 +13 +13 1004.4 996.5 0.1
21 11.09 Ю 1
{5}
8000 м дымка {ливн. осадки, дождь} 10/10 180 м
[]
+14.0 +13.5 97 +14 +14 1004.4 996.4
22 11.09 Ю 1
{2}
50 км {ливн. осадки, дождь} 10/10 240 м
[]
+14.0 +13.6 97 +14 +14 1004.6 996.7
23 11.09 ЮВ 1
{3}
40 км в посл. час дождь {ливн. осадки} 10/10 500 м
[]
+13.8 +13.5 98 +14 +14 1004.9 997.0 0.4
00 12.09 штиль 0 40 км {ливн. осадки, дождь} 9/9 450 м
[]
+13.2 +12.7 97 +13 +13 1005.8 997.8
01 12.09 штиль 0
{2}
6000 м дымка 1/1 420 м
[]
+11.5 +11.2 98 +11 +11 1006.8 998.8
02 12.09 штиль 0
{3}
10 км ясно +10.5 +10.2 98 +10 +10 1007.9 999.9
03 12.09 Ю 1
{2}
7000 м дымка ясно +9.2 +9.0 99 +8 +8 1008.4 1000.3
04 12.09 С 1
{2}
500 м туман {дымка} ясно +6.6 +6.6 100 +5 +5 1009.3 1001.2
05 12.09 штиль 0
{1}
3900 м в посл. час туман {дымка} ясно +5.7 +5.6 99 +5 +5 1010.1 1001.8
06 12.09 штиль 0
{2}
35 км в посл. час туман {дымка} ясно +8.8 +8.8 100 +8 +8 1010.6 1002.5 +5.7 +14.2
07 12.09 ЮЗ 2
{5}
40 км ясно +13.1 +10.3 83 +12 +14 1011.0 1003.0
08 12.09 ЮЗ 2
{6}
40 км ясно +15.2 +10.4 73 +15 +18 1011.6 1003.7
09 12.09 ЮЗ 2
{5}
40 км ясно +17.1 +10.8 66 +17 +22 1011.9 1004.0
10 12.09 ЮЗ 3
{8}
35 км ясно +17.6 +10.0 61 +18 +23 1012.1 1004.2
11 12.09 ЮЗ 4
{9}
40 км 3/3 1200 м
[]
+18.6 +9.7 56 +19 +22 1012.1 1004.3
12 12.09 ЮЗ 4
{11}
35 км ясно +18.0 +9.6 58 +18 +22 1012.4 1004.5
13 12.09 ЮЗ 3
{9}
40 км 8/8 1300 м
[]
+17.6 +9.3 58 +18 +19 1012.5 1004.6
14 12.09 ЮЗ 2
{8}
45 км 10/10 1050 м
[]
+17.3 +10.2 63 +18 +18 1012.4 1004.5
15 12.09 ЮЗ 3
{8}
40 км 10/0
[]
+16.0 +10.3 69 +16 +16 1012.6 1004.7
16 12.09 ЮЗ 2
{8}
45 км 10/0
[]
+15.6 +10.6 72 +16 +16 1012.6 1004.7
17 12.09 ЮЗ 2
{8}
35 км 10/0
[]
+15.3 +10.7 74 +15 +15 1012.2 1004.3
18 12.09 ЮЗ 2
{8}
30 км 10/0
[]
+14.9 +10.5 75 +15 +15 1012.5 1004.5 +19.3
19 12.09 ЮЗ 2
{6}
26 км 10/0
[]
+14.5 +10.8 78 +14 +14 1012.2 1004.3
20 12.09 ЮЗ 2
{7}
35 км 9/9 660 м
[]
+14.0 +10.4 79 +14 +14 1012.1 1004.1
21 12.09 ЮЗ 2
{5}
50 км 6/0
[]
+13.3 +9.5 78 +13 +13 1012.1 1004.1
22 12.09 ЮЗ 1
{4}
50 км 10/0
[]
+13.4 +9.8 79 +14 +14 1012.0 1004.0
23 12.09 З 1
{5}
40 км 10/0
[]
+12.7 +9.7 82 +13 +13 1012.0 1004.0
00 13.09 Ю 1
{3}
50 км 10/0
[]
+12.6 +9.8 83 +13 +13 1011.8 1003.8
01 13.09 ЮЗ 1
{3}
50 км 10/0
[]
+11.9 +9.5 85 +12 +12 1011.6 1003.5
02 13.09 СВ 1
{3}
35 км ясно +9.0 +8.0 93 +8 +8 1011.9 1003.8
03 13.09 штиль 0
{2}
2600 м дымка ясно +5.8 +5.3 97 +5 +5 1012.1 1003.9
04 13.09 штиль 0
{1}
2400 м в посл. час туман {дымка} ясно +4.6 +4.3 98 +3 +3 1012.5 1004.3
05 13.09 З 1
{4}
45 км в посл. час туман {дымка} ясно +4.6 +4.4 99 +3 +3 1013.1 1004.9
06 13.09 В 1
{3}
50 км {туман, дымка} ясно +9.3 +7.4 88 +9 +9 1014.1 1006.0 +3.5 +15.0
07 13.09 С 2
{4}
45 км ясно +11.5 +7.0 74 +10 +12 1014.8 1006.8
08 13.09 СЗ 2
{6}
45 км ясно +13.1 +6.2 63 +13 +16 1015.5 1007.5
09 13.09 СЗ 3
{8}
40 км ясно +14.2 +5.8 57 +13 +17 1016.1 1008.1
10 13.09 СЗ 2
{8}
40 км ясно +15.5 +6.0 53 +16 +21 1016.6 1008.7
11 13.09 СЗ 3
{7}
40 км 1/1 1500 м
[]
+16.2 +5.5 49 +16 +21 1017.0 1009.0
12 13.09 З 3
{7}
45 км 5/5 1500 м
[]
+17.0 +4.7 44 +17 +21 1017.6 1009.6
13 13.09 З 3
{8}
50 км ясно +17.2 +4.5 43 +17 +21 1018.1 1010.2
14 13.09 З 3
{10}
40 км 9/0
[]
+18.0 +5.6 44 +18 +20 1018.3 1010.5
15 13.09 З 2
{10}
50 км ясно +17.1 +3.4 40 +17 +19 1018.3 1010.4
16 13.09 З 2
{7}
50 км ясно +15.8 +1.9 39 +16 +17 1018.8 1010.8
17 13.09 З 1
{7}
50 км ясно +13.8 +2.7 47 +14 +14 1019.1 1011.1
18 13.09 штиль 0
{4}
50 км ясно +9.0 +5.5 79 +8 +8 1019.8 1011.6 +9.0 +18.2
19 13.09 штиль 0
{2}
50 км ясно +5.1 +4.1 93 +4 +4 1020.4 1012.1
20 13.09 штиль 0 50 км ясно +4.1 +3.5 96 +3 +3 1020.7 1012.4
21 13.09 З 1
{4}
50 км ясно +4.9 +4.6 98 +3 +3 1021.0 1012.7
22 13.09 З 2
{6}
50 км ясно +9.8 +2.9 62 +9 +9 1021.2 1013.0
23 13.09 СЗ 2
{5}
50 км ясно +9.4 +2.3 61 +8 +8 1021.8 1013.6
00 14.09 З 2
{5}
50 км ясно +8.8 +2.4 64 +7 +7 1022.0 1013.8
01 14.09 С 2
{7}
50 км ясно +6.9 +2.4 73 +5 +5 1022.7 1014.5
02 14.09 СЗ 1
{4}
50 км ясно +6.2 +2.1 75 +5 +5 1023.1 1014.8
03 14.09 З 1
{2}
45 км ясно +3.7 +2.7 93 +2 +2 1023.4 1015.0
04 14.09 СЗ 1
{3}
50 км ясно +3.7 +2.5 92 +2 +2 1023.3 1014.9
05 14.09 СВ 1
{2}
50 км ясно +2.7 +2.1 96 +1 +1 1023.2 1014.7
06 14.09 штиль 0
{2}
50 км ясно +4.2 +3.6 96 +3 +4 1023.4 1015.0 +2.6 +10.3
07 14.09 штиль 0
{1}
40 км 4/0
[]
+7.1 +6.1 93 +6 +8 1023.5 1015.3
08 14.09 Ю 1
{2}
40 км ясно +12.4 +4.8 60 +13 +16 1023.1 1015.0
09 14.09 З 2
{5}
35 км ясно +14.8 +5.1 52 +15 +19 1022.8 1014.7
10 14.09 З 1
{6}
45 км 9/0
[]
+14.6 +4.8 52 +15 +19 1022.9 1014.9
11 14.09 ЮЗ 2
{8}
50 км 3/0
[]
+15.5 +4.9 49 +16 +21 1022.2 1014.2
12 14.09 З 3
{7}
40 км 4/0
[]
+16.2 +4.3 45 +16 +20 1021.7 1013.6
13 14.09 ЮЗ 2
{7}
40 км 5/0
[]
+15.8 +4.5 47 +16 +20 1020.8 1012.8
14 14.09 ЮЗ 2
{6}
50 км 10/10 1500 м
[]
+14.7 +6.0 56 +15 +15 1020.4 1012.4
15 14.09 ЮЗ 2
{6}
40 км слаб. дождь 10/10 960 м
[]
+14.0 +7.7 66 +14 +14 1019.4 1011.4
16 14.09 ЮЗ 2
{5}
30 км слаб. ливневой дождь 10/10 720 м
[]
+13.2 +9.6 79 +13 +13 1018.3 1010.2
17 14.09 Ю 1
{5}
27 км слаб. дождь 10/10 1500 м
[]
+12.6 +9.9 84 +13 +13 1016.9 1008.9
18 14.09 Ю 2
{5}
22 км слаб. дождь 10/10 570 м
[]
+12.3 +10.3 88 +11 +11 1015.7 1007.6 +4.2 +17.2
19 14.09 Ю 3
{7}
12 км слаб. ливневой дождь 10/10 570 м
[]
+12.4 +10.3 87 +11 +11 1014.0 1006.0 0.0
20 14.09 Ю 2
{7}
13 км слаб. дождь 10/10 570 м
[]
+11.4 +9.8 90 +10 +10 1012.2 1004.1 0.0
21 14.09 Ю 2
{9}
8000 м слаб. дождь 10/10 330 м
[]
+11.1 +10.1 94 +10 +10 1010.3 1002.3
22 14.09 Ю 2
{7}
12 км дождь {ливн. осадки} 10/10 420 м
[]
+11.5 +10.4 93 +10 +10 1008.2 1000.1 1
23 14.09 Ю 2
{9}
5000 м слаб. дождь 10/10 210 м
[]
+11.6 +10.9 95 +10 +10 1006.4 998.3 0.9
00 15.09 ЮЗ 2
{7}
14 км дождь {ливн. осадки} 10/10 400 м
[]
+12.5 +11.4 93 +11 +11 1004.5 996.4 0.9
01 15.09 ЮЗ 2
{5}
19 км слаб. дождь 10/10 400 м
[]
+12.8 +11.7 93 +12 +12 1003.2 995.2 0.9
02 15.09 Ю 2
{7}
40 км в посл. час дождь 10/10 450 м
[]
+13.0 +11.6 91 +12 +12 1001.0 993.2 0.1
03 15.09 Ю 2
{6}
50 км в посл. час дождь 10/10 480 м
[]
+13.0 +11.2 89 +12 +12 1000.0 992.1
04 15.09 ЮЗ 2
{5}
50 км {дождь} 10/10 500 м
[]
+12.7 +10.9 89 +12 +12 999.1 991.1
06 15.09 З 2
{6}
50 км {дождь} ясно +11.7 +9.1 84 +11 +11 998.1 990.2 +10.9 +13.2
07 15.09 ЮЗ 2
{7}
40 км ясно +12.5 +8.0 74 +12 +13 998.0 990.1
08 15.09 ЮЗ 3
{9}
30 км ясно +13.4 +6.9 65 +12 +15 997.9 990.1
09 15.09 ЮЗ 3
{9}
35 км 5/5 1140 м
[]
+14.1 +6.5 60 +13 +15 997.8 989.9
10 15.09 З 3
{10}
40 км ясно +15.1 +5.6 53 +15 +19 997.8 989.9
11 15.09 З 3
{10}
40 км ясно +15.8 +5.1 49 +15 +21 997.2 989.4
12 15.09 ЮЗ 3
{10}
40 км ясно +16.4 +2.8 40 +16 +21 997.1 989.2
13 15.09 ЮЗ 3
{10}
35 км ясно +17.0 +3.7 41 +17 +21 996.2 988.4
14 15.09 ЮЗ 3
{11}
40 км ясно +17.3 +4.3 42 +17 +20 996.0 988.1
15 15.09 ЮЗ 3
{9}
50 км ясно +16.1 +4.8 47 +16 +17 995.3 987.4
16 15.09 ЮЗ 3
{10}
50 км 4/0
[]
+15.9 +5.2 49 +16 +16 995.0 987.2
17 15.09 ЮЗ 2
{9}
50 км ясно +14.5 +5.3 54 +14 +14 995.0 987.2
18 15.09 ЮЗ 1
{5}
50 км ясно +12.9 +5.6 61 +13 +13 995.4 987.5 +11.7 +17.4
19 15.09 ЮЗ 2
{6}
50 км ясно +12.4 +5.1 61 +12 +12 995.9 988.0
20 15.09 ЮЗ 2
{7}
50 км ясно +11.8 +4.8 62 +11 +11 996.9 989.0
21 15.09 З 1
{5}
50 км ясно +10.7 +3.9 63 +11 +11 997.8 989.9
22 15.09 З 2 50 км ясно +11.2 +3.5 59 +10 +10 998.7 990.8
23 15.09 СЗ 1
{5}
50 км ясно +10.5 +3.5 62 +10 +10 999.8 991.8
00 16.09 З 1
{7}
50 км ясно +10.2 +3.2 62 +10 +10 1000.2 992.3
01 16.09 З 2
{6}
50 км ясно +10.7 +2.6 57 +10 +10 1001.0 993.1
02 16.09 З 2
{4}
50 км ясно +9.5 +1.9 59 +8 +8 1001.9 993.9
03 16.09 З 1
{5}
50 км ясно +8.9 +1.3 59 +9 +9 1002.6 994.5
04 16.09 З 1 50 км ясно +8.5 +1.5 61 +8 +8 1003.1 995.1
05 16.09 З 1
{3}
50 км ясно +6.2 +2.2 76 +5 +5 1003.5 995.3
06 16.09 З 1
{4}
50 км 8/0
[]
+7.6 +1.0 63 +7 +7 1003.8 995.7 +5.7 +13.0
08 16.09 З 2
{6}
50 км 5/0
[]
+12.1 +2.0 50 +11 +14 1004.6 996.6
09 16.09 СЗ 3
{9}
45 км ясно +12.9 +2.8 50 +12 +15 1004.8 996.9
10 16.09 З 3 35 км ясно +14.2 +2.1 44 +13 +18 1005.1 997.2
11 16.09 СЗ 3
{8}
45 км ясно +14.6 +2.2 43 +14 +19 1005.2 997.3
12 16.09 СЗ 4
{10}
40 км 8/8 1500 м
[]
+14.5 +1.4 41 +13 +16 1005.2 997.3
13 16.09 З 2
{7}
50 км 10/0
[]
+14.4 +1.3 41 +14 +17 1005.2 997.3
14 16.09 С 2
{6}
50 км 10/0
[]
+14.1 +3.0 47 +14 +15 1005.2 997.3
15 16.09 З 2
{6}
50 км ясно +14.9 +0.3 37 +15 +17 1004.9 997.0
16 16.09 З 1
{5}
50 км ясно +13.2 +2.4 48 +14 +14 1004.7 996.8
17 16.09 штиль 0
{3}
50 км ясно +8.6 +5.2 79 +8 +8 1004.6 996.5
18 16.09 штиль 0
{1}
50 км ясно +4.3 +3.6 95 +3 +3 1004.6 996.4 +4.3 +15.7
19 16.09 штиль 0
{1}
4800 м дымка ясно +2.4 +2.2 99 +1 +1 1004.6 996.4

 

Местоположение метеостанции Арвика (Швеция): широта 59.67 долгота 12.63 высота над уровнем моря 67 м.

В архиве по умолчанию представлена погода в Арвике за последнюю неделю. Архивные данные за месяц целиком и за предыдущие месяцы, начиная с января 2011 года, Вы можете получить, выбрав интересующий диапазон дат из раскрывающегося списка и нажав кнопку "Ввод!".


*Определитесь, кто Вы:
робот инопланетянин человек

Внимание! Время в таблицах - всемирное. Для получения местного времени необходимо прибавить поправку, которая равна 1 ч.

Смотрите также архив погоды в соседних городах и на ближайших метеорологических станциях:

Погода в Сунне (Швеция) (35 км)
Погода в Карлштаде (Швеция) (53 км)
Погода в Бломскоге (Швеция) (59 км)
Погода в Эурскуге (Норвегия) (65 км)
Погода в Конгсвингере (Норвегия) (68 км)
Погода в Густавсфорсе (Швеция) (84 км)
Погода на Даглосене (Швеция) (87 км)
Погода в Кьеллере (Норвегия) (95 км)
Погода в Сарпсборге (Норвегия) (96 км)
Погода в Асе (Норвегия) (104 км)

Пояснения к столбцам:

Ветер - указаны скорость ветра в м/с - средняя за 10 мин, порывы в срок и между сроками (в фигурных скобках) и направление, откуда дует ветер: С - северный, СВ - северо-восточный, В - восточный, ЮВ - юго-восточный, Ю - южный, ЮЗ - юго-западный, З - западный, СЗ - северо-западный.
Видимость - горизонтальная дальность видимости в метрах или километрах. При видимости от 1 до 10 км при отсутствии осадков обычно наблюдается дымка, при ухудшении видимости до 1 км и менее - туман. В сухую погоду видимость может ухудшаться дымом, пылью или мглою.
Явления - указаны атмосферные явления, наблюдавшиеся в срок или в последний час перед сроком; фигурными скобками обозначены явления, наблюдавшиеся между сроками (за 1-3 часа до срока); квадратными скобками обозначены град или гололедные отложения с указанием их диаметра в мм.
Облачность - указаны через наклонную черту общая и нижняя облачность в баллах и высота нижней границы облаков в метрах; квадратными скобками обозначены формы облаков: Ci - перистые, Cs - перисто-слоистые, Cc - перисто-кучевые, Ac - высококучевые, As - высокослоистые, Sc - слоисто-кучевые, Ns - слоисто-дождевые, Cu - кучевые, Cb - кучево-дождевые. Подробнее классификацию облаков см. в Атласе облаков (PDF).
T - Температура воздуха - температура, измеренная на высоте 2 м над землей.
Td - Температура точки росы - температура, при понижении до которой содержащийся в воздухе водяной пар достигнет насыщения.
f - Относительная влажность воздуха - влажноcть воздуха, измеренная на высоте 2 м над землей.
Te - Эффективная температура - температура, которую ощущает одетый по сезону человек в тени. Характеристика душности погоды. При расчете учитывается влияние влажности воздуха и скорости ветра на теплоощущения человека.
Tes - Эффективная температура на солнце - температура, которую ощущает человек, с поправкой на солнечный нагрев. Характеристика знойности погоды. Зависит от высоты солнца над горизонтом, облачности и скорости ветра. Ночью, в пасмурную погоду, а также при ветре 12 м/с и более поправка равна нулю.
P - Атмосферное давление - приведенное к уровню моря атмосферное давление.
Po - Атмосферное давление - измеренное на уровне метеостанции атмосферное давление.
Tmin - Минимальная температура - минимум температуры воздуха на высоте 2 м над землей.
Tmax - Максимальная температура - максимум температуры воздуха на высоте 2 м над землей.
R - Количество осадков - Количество выпавших осадков за период времени, мм. При наведении курсора мыши на число - период времени, за который выпало указанное количество осадков.
R24 - Количество осадков - Количество выпавших осадков за 24 часа, мм.
S - Снежный покров - Высота снежного покрова, см. При наведении курсора мыши на число - состояние снежного покрова и степень покрытия местности в баллах.